PGT740 LTFJ-OMDB

Flight info

Callsign PGT740
Flight time 4h 19m
Altitude 39000
Route ROXUK UN617 VAPEK UT38 VESAR/N0448F380 DCT PASOS/N0448F390 L550 KARIK B411 DEESA Y415 LOTOK P559 VUTEB
Aircraft A20N/M-SDE2E3FGHIRWXY/LB1

Departure

Time 2026-04-21 08:00
Airport Istanbul Sabiha Gökçen International Airport (LTFJ)

Arrival

Time 2026-04-21 12:19
Airport Dubai International Airport (OMDB)
Time Latitude Longitude Altitude Speed Heading
2026-04-21 07:41 40.90643 29.31664 320 ft 0 kts 334°
2026-04-21 07:49 40.90642 29.31664 319 ft 2 kts 334°
2026-04-21 07:50 40.90627 29.31674 319 ft 2 kts 335°
2026-04-21 07:50 40.90612 29.31683 319 ft 2 kts 336°
2026-04-21 07:50 40.90597 29.31691 319 ft 2 kts 338°
2026-04-21 07:50 40.90582 29.31699 320 ft 2 kts 341°
2026-04-21 07:51 40.90566 29.31705 320 ft 2 kts 352°
2026-04-21 07:51 40.90550 29.31704 320 ft 2 kts 36°
2026-04-21 07:51 40.90542 29.31693 320 ft 1 kts 62°
2026-04-21 07:51 40.90541 29.31692 320 ft 0 kts 63°
2026-04-21 07:53 40.90544 29.31698 320 ft 3 kts 62°
2026-04-21 07:53 40.90582 29.31800 319 ft 20 kts 65°
2026-04-21 07:53 40.90657 29.32006 320 ft 30 kts 64°
2026-04-21 07:54 40.90733 29.32253 320 ft 27 kts 103°
2026-04-21 07:54 40.90617 29.32360 320 ft 17 kts 115°
2026-04-21 07:54 40.90528 29.32456 318 ft 19 kts 156°
2026-04-21 07:54 40.90401 29.32535 316 ft 20 kts 153°
2026-04-21 07:55 40.90287 29.32574 320 ft 17 kts 214°
2026-04-21 07:55 40.90232 29.32442 319 ft 17 kts 243°
2026-04-21 07:55 40.90168 29.32295 320 ft 20 kts 241°
2026-04-21 07:55 40.90113 29.32120 318 ft 22 kts 244°
2026-04-21 07:56 40.90004 29.32081 319 ft 20 kts 154°
2026-04-21 07:56 40.89857 29.32181 311 ft 27 kts 152°
2026-04-21 07:56 40.89670 29.32301 306 ft 31 kts 153°
2026-04-21 07:56 40.89507 29.32392 306 ft 22 kts 122°
2026-04-21 07:57 40.89541 29.32551 308 ft 21 kts 66°
2026-04-21 07:57 40.89623 29.32771 307 ft 32 kts 64°
2026-04-21 07:57 40.89736 29.33073 304 ft 41 kts 64°
2026-04-21 07:57 40.89872 29.33445 303 ft 48 kts 63°
2026-04-21 07:58 40.89990 29.33766 314 ft 26 kts 80°
2026-04-21 07:58 40.89888 29.33869 315 ft 17 kts 159°
2026-04-21 07:58 40.89806 29.33845 315 ft 11 kts 232°
2026-04-21 07:58 40.89794 29.33820 315 ft 0 kts 240°
2026-04-21 07:59 40.89778 29.33781 314 ft 28 kts 242°
2026-04-21 07:59 40.89571 29.33214 305 ft 105 kts 244°
2026-04-21 07:59 40.89162 29.32099 317 ft 162 kts 244°
2026-04-21 08:00 40.88671 29.30751 1037 ft 163 kts 244°
2026-04-21 08:00 40.88149 29.29331 1685 ft 184 kts 244°
2026-04-21 08:00 40.87570 29.27747 2435 ft 198 kts 244°
2026-04-21 08:00 40.86875 29.26155 3380 ft 205 kts 229°
2026-04-21 08:01 40.85752 29.24988 4298 ft 211 kts 206°
2026-04-21 08:01 40.84339 29.24425 4908 ft 228 kts 188°
2026-04-21 08:01 40.82781 29.24191 5910 ft 216 kts 187°
2026-04-21 08:02 40.79934 29.23363 7462 ft 220 kts 209°
2026-04-21 08:02 40.78560 29.22223 7700 ft 246 kts 220°
2026-04-21 08:02 40.77148 29.20820 8210 ft 263 kts 209°
2026-04-21 08:02 40.75358 29.20240 9025 ft 274 kts 182°
2026-04-21 08:03 40.73471 29.20782 9808 ft 287 kts 162°
2026-04-21 08:03 40.71606 29.21908 10285 ft 305 kts 155°
2026-04-21 08:03 40.69658 29.23254 10543 ft 329 kts 154°
2026-04-21 08:03 40.67564 29.24689 10849 ft 348 kts 155°
2026-04-21 08:04 40.65387 29.26121 11551 ft 353 kts 155°
2026-04-21 08:04 40.63166 29.27540 12267 ft 358 kts 156°
2026-04-21 08:04 40.60903 29.28960 12998 ft 363 kts 156°
2026-04-21 08:04 40.58608 29.30388 13724 ft 368 kts 156°
2026-04-21 08:05 40.56278 29.31832 14377 ft 373 kts 156°
2026-04-21 08:05 40.53925 29.33287 15033 ft 376 kts 156°
2026-04-21 08:05 40.51546 29.34756 15667 ft 381 kts 156°
2026-04-21 08:05 40.49150 29.36266 16281 ft 386 kts 153°
2026-04-21 08:06 40.46865 29.38144 16895 ft 391 kts 144°
2026-04-21 08:06 40.44725 29.40374 17499 ft 396 kts 142°
2026-04-21 08:06 40.42571 29.42643 17890 ft 400 kts 142°
2026-04-21 08:06 40.40399 29.44920 17989 ft 400 kts 142°
2026-04-21 08:07 40.38225 29.47188 17991 ft 400 kts 142°
2026-04-21 08:07 40.36052 29.49450 17991 ft 400 kts 142°
2026-04-21 08:07 40.33880 29.51711 18005 ft 400 kts 142°
2026-04-21 08:07 40.31691 29.53986 18359 ft 404 kts 142°
2026-04-21 08:08 40.29487 29.56279 18951 ft 406 kts 142°
2026-04-21 08:08 40.27267 29.58589 19463 ft 411 kts 142°
2026-04-21 08:08 40.25021 29.60920 19968 ft 415 kts 143°
2026-04-21 08:08 40.22719 29.63207 20475 ft 417 kts 148°
2026-04-21 08:09 40.20151 29.64955 21031 ft 418 kts 161°
2026-04-21 08:09 40.17362 29.65984 21514 ft 418 kts 173°
2026-04-21 08:09 40.14484 29.66577 22010 ft 422 kts 174°
2026-04-21 08:09 40.11578 29.67170 22520 ft 426 kts 174°
2026-04-21 08:10 40.08648 29.67777 23016 ft 430 kts 174°
2026-04-21 08:10 40.05688 29.68393 23496 ft 434 kts 174°
2026-04-21 08:10 40.02704 29.69014 23944 ft 436 kts 174°
2026-04-21 08:10 39.99710 29.69638 24391 ft 438 kts 174°
2026-04-21 08:11 39.96698 29.70267 24819 ft 440 kts 174°
2026-04-21 08:11 39.93669 29.70900 25224 ft 443 kts 174°
2026-04-21 08:11 39.90629 29.71580 25652 ft 447 kts 171°
2026-04-21 08:11 39.87625 29.72693 26076 ft 452 kts 163°
2026-04-21 08:12 39.84710 29.74273 26455 ft 457 kts 159°
2026-04-21 08:12 39.81797 29.75937 26817 ft 460 kts 159°
2026-04-21 08:12 39.78865 29.77599 27234 ft 460 kts 159°
2026-04-21 08:12 39.75928 29.79260 27614 ft 463 kts 159°
2026-04-21 08:13 39.72973 29.80927 27958 ft 465 kts 159°
2026-04-21 08:13 39.70003 29.82598 28297 ft 468 kts 159°
2026-04-21 08:13 39.67022 29.84273 28691 ft 468 kts 159°
2026-04-21 08:13 39.64032 29.85954 29020 ft 470 kts 160°
2026-04-21 08:14 39.61024 29.87641 29329 ft 473 kts 160°
2026-04-21 08:14 39.58005 29.89333 29628 ft 475 kts 160°
2026-04-21 08:14 39.54974 29.91031 29933 ft 476 kts 160°
2026-04-21 08:14 39.51931 29.92733 30222 ft 478 kts 160°
2026-04-21 08:15 39.48879 29.94449 30484 ft 480 kts 159°
2026-04-21 08:15 39.45818 29.96183 30740 ft 482 kts 159°
2026-04-21 08:15 39.42748 29.97924 31012 ft 484 kts 159°
2026-04-21 08:15 39.39667 29.99669 31327 ft 484 kts 159°
2026-04-21 08:16 39.36591 30.01408 31681 ft 483 kts 160°
2026-04-21 08:16 39.33518 30.03142 32003 ft 483 kts 160°
2026-04-21 08:16 39.30451 30.04868 32391 ft 481 kts 160°
2026-04-21 08:16 39.27389 30.06588 32718 ft 480 kts 160°
2026-04-21 08:17 39.24336 30.08305 33041 ft 480 kts 160°
2026-04-21 08:17 39.21285 30.10020 33351 ft 479 kts 160°
2026-04-21 08:17 39.18237 30.11730 33669 ft 478 kts 160°
2026-04-21 08:17 39.15204 30.13429 34068 ft 475 kts 161°
2026-04-21 08:18 39.12182 30.15119 34299 ft 475 kts 161°
2026-04-21 08:18 39.09153 30.16811 34484 ft 475 kts 160°
2026-04-21 08:18 39.06129 30.18501 34726 ft 475 kts 160°
2026-04-21 08:18 39.03108 30.20192 34926 ft 475 kts 160°
2026-04-21 08:19 39.00085 30.21885 35122 ft 475 kts 160°
2026-04-21 08:19 38.97060 30.23579 35312 ft 475 kts 160°
2026-04-21 08:19 38.94036 30.25274 35506 ft 475 kts 160°
2026-04-21 08:19 38.91009 30.26965 35686 ft 475 kts 160°
2026-04-21 08:20 38.87981 30.28653 35875 ft 476 kts 160°
2026-04-21 08:20 38.84953 30.30342 36039 ft 476 kts 160°
2026-04-21 08:20 38.81924 30.32031 36200 ft 476 kts 160°
2026-04-21 08:20 38.78889 30.33722 36350 ft 476 kts 160°
2026-04-21 08:21 38.75857 30.35407 36518 ft 476 kts 160°
2026-04-21 08:21 38.72823 30.37090 36677 ft 476 kts 160°
2026-04-21 08:21 38.69786 30.38772 36835 ft 476 kts 160°
2026-04-21 08:21 38.66750 30.40455 37000 ft 476 kts 160°
2026-04-21 08:22 38.63720 30.42136 37175 ft 476 kts 160°
2026-04-21 08:22 38.60688 30.43815 37322 ft 476 kts 160°
2026-04-21 08:22 38.57657 30.45490 37448 ft 476 kts 160°
2026-04-21 08:22 38.54621 30.47166 37571 ft 476 kts 160°
2026-04-21 08:23 38.51587 30.48841 37705 ft 476 kts 160°
2026-04-21 08:23 38.48549 30.50515 37823 ft 477 kts 160°
2026-04-21 08:23 38.45514 30.52186 37943 ft 477 kts 160°
2026-04-21 08:23 38.42475 30.53858 38059 ft 477 kts 160°
2026-04-21 08:24 38.39436 30.55528 38154 ft 477 kts 160°
2026-04-21 08:24 38.33353 30.58870 38285 ft 478 kts 160°
2026-04-21 08:25 38.27499 30.62910 38456 ft 484 kts 147°
2026-04-21 08:25 38.22390 30.68520 38613 ft 488 kts 139°
2026-04-21 08:26 38.17471 30.74435 38767 ft 488 kts 139°
2026-04-21 08:26 38.12538 30.80324 38906 ft 488 kts 139°
2026-04-21 08:27 38.07601 30.86200 39019 ft 488 kts 139°
2026-04-21 08:27 38.02655 30.92082 39031 ft 488 kts 140°
2026-04-21 08:28 37.97708 30.97947 39034 ft 487 kts 139°
2026-04-21 08:28 37.92778 31.03789 39035 ft 486 kts 139°
2026-04-21 08:29 37.87836 31.09625 39036 ft 487 kts 140°
2026-04-21 08:29 37.82896 31.15448 39031 ft 486 kts 140°
2026-04-21 08:30 37.77952 31.21273 39022 ft 487 kts 140°
2026-04-21 08:30 37.72988 31.27103 39026 ft 488 kts 140°
2026-04-21 08:31 37.68027 31.32921 39026 ft 487 kts 140°
2026-04-21 08:31 37.63070 31.38722 39020 ft 488 kts 140°
2026-04-21 08:32 37.58103 31.44524 39020 ft 487 kts 140°
2026-04-21 08:32 37.53135 31.50317 39013 ft 488 kts 140°
2026-04-21 08:33 37.48162 31.56104 38997 ft 488 kts 140°
2026-04-21 08:33 37.43177 31.61893 39014 ft 489 kts 140°
2026-04-21 08:34 37.38196 31.67686 39010 ft 489 kts 138°
2026-04-21 08:34 37.33765 31.74185 39010 ft 492 kts 129°
2026-04-21 08:35 37.29648 31.81036 39011 ft 492 kts 129°
2026-04-21 08:35 37.25521 31.87855 39013 ft 491 kts 129°
2026-04-21 08:36 37.21387 31.94654 39014 ft 492 kts 129°
2026-04-21 08:36 37.17240 32.01458 39019 ft 492 kts 129°
2026-04-21 08:37 37.13097 32.08251 39023 ft 492 kts 129°
2026-04-21 08:37 37.08940 32.15047 39018 ft 494 kts 129°
2026-04-21 08:38 37.04769 32.21856 39025 ft 494 kts 129°
2026-04-21 08:38 37.00596 32.28654 39023 ft 493 kts 129°
2026-04-21 08:39 36.96424 32.35434 39020 ft 493 kts 129°
2026-04-21 08:39 36.92241 32.42220 39019 ft 494 kts 130°
2026-04-21 08:40 36.88054 32.48999 39017 ft 493 kts 130°
2026-04-21 08:40 36.83868 32.55769 39021 ft 494 kts 130°
2026-04-21 08:41 36.79674 32.62539 39022 ft 494 kts 130°
2026-04-21 08:41 36.75486 32.69288 39019 ft 492 kts 130°
2026-04-21 08:42 36.71293 32.76029 39017 ft 493 kts 130°
2026-04-21 08:42 36.67090 32.82773 39027 ft 495 kts 130°
2026-04-21 08:43 36.62877 32.89520 39002 ft 494 kts 130°
2026-04-21 08:43 36.58666 32.96249 39008 ft 494 kts 130°
2026-04-21 08:44 36.54446 33.02979 39007 ft 494 kts 130°
2026-04-21 08:44 36.50228 33.09694 39003 ft 494 kts 130°
2026-04-21 08:45 36.46005 33.16403 39007 ft 494 kts 130°
2026-04-21 08:45 36.41775 33.23106 39000 ft 494 kts 130°
2026-04-21 08:46 36.37547 33.29797 39009 ft 493 kts 130°
2026-04-21 08:46 36.33308 33.36479 38998 ft 494 kts 130°
2026-04-21 08:47 36.29064 33.43153 38996 ft 494 kts 130°
2026-04-21 08:47 36.24803 33.49845 39003 ft 496 kts 130°
2026-04-21 08:48 36.20538 33.56531 39002 ft 496 kts 130°
2026-04-21 08:48 36.16268 33.63209 39005 ft 495 kts 130°
2026-04-21 08:49 36.11998 33.69874 38997 ft 495 kts 131°
2026-04-21 08:49 36.07726 33.76532 39001 ft 495 kts 131°
2026-04-21 08:50 36.03451 33.83178 39001 ft 495 kts 131°
2026-04-21 08:50 35.99169 33.89819 39001 ft 495 kts 132°
2026-04-21 08:50 35.96805 33.92856 39004 ft 490 kts 143°
2026-04-21 08:51 35.94079 33.95323 39009 ft 485 kts 154°
2026-04-21 08:51 35.87988 33.98386 39004 ft 468 kts 173°
2026-04-21 08:52 35.81621 33.98891 39008 ft 454 kts 192°
2026-04-21 08:52 35.75491 33.97445 39013 ft 449 kts 198°
2026-04-21 08:53 35.69391 33.95878 38993 ft 448 kts 198°
2026-04-21 08:53 35.63295 33.94313 39015 ft 449 kts 198°
2026-04-21 08:54 35.57195 33.92746 39009 ft 449 kts 198°
2026-04-21 08:54 35.51099 33.91181 39012 ft 449 kts 198°
2026-04-21 08:55 35.44997 33.89617 39012 ft 449 kts 198°
2026-04-21 08:55 35.38897 33.88056 39008 ft 449 kts 198°
2026-04-21 08:56 35.32795 33.86497 39012 ft 449 kts 198°
2026-04-21 08:56 35.26696 33.84942 39010 ft 448 kts 198°
2026-04-21 08:57 35.20601 33.83390 39012 ft 448 kts 198°
2026-04-21 08:57 35.14504 33.81840 39015 ft 448 kts 198°
2026-04-21 08:58 35.08415 33.80294 39011 ft 447 kts 199°
2026-04-21 08:58 35.02328 33.78753 39012 ft 448 kts 198°
2026-04-21 08:59 34.96242 33.77213 39007 ft 447 kts 199°
2026-04-21 08:59 34.90156 33.75675 39001 ft 448 kts 199°
2026-04-21 09:00 34.84066 33.74137 38990 ft 448 kts 199°
2026-04-21 09:00 34.77979 33.72601 38994 ft 448 kts 199°
2026-04-21 09:01 34.71886 33.71071 38979 ft 448 kts 199°
2026-04-21 09:01 34.65802 33.69544 39000 ft 448 kts 199°
2026-04-21 09:02 34.59711 33.68015 39002 ft 448 kts 199°
2026-04-21 09:02 34.53617 33.66490 39005 ft 448 kts 199°
2026-04-21 09:03 34.44493 33.64208 39015 ft 447 kts 199°
2026-04-21 09:03 34.38412 33.62688 39015 ft 447 kts 199°
2026-04-21 09:04 34.32329 33.61172 38998 ft 447 kts 199°
2026-04-21 09:04 34.26255 33.59664 39028 ft 446 kts 199°
2026-04-21 09:05 34.20185 33.58155 39030 ft 446 kts 199°
2026-04-21 09:05 34.14112 33.56649 39032 ft 446 kts 199°
2026-04-21 09:06 34.08048 33.55148 39032 ft 445 kts 199°
2026-04-21 09:06 34.01992 33.53652 39034 ft 445 kts 200°
2026-04-21 09:07 33.95933 33.52155 39036 ft 445 kts 200°
2026-04-21 09:07 33.89880 33.50661 39035 ft 444 kts 200°
2026-04-21 09:08 33.83844 33.49174 39037 ft 444 kts 200°
2026-04-21 09:08 33.77806 33.47687 39037 ft 444 kts 200°
2026-04-21 09:09 33.71767 33.46203 39039 ft 444 kts 200°
2026-04-21 09:09 33.65737 33.44726 39040 ft 443 kts 200°
2026-04-21 09:10 33.59705 33.43248 39042 ft 443 kts 200°
2026-04-21 09:10 33.53675 33.41775 39042 ft 443 kts 200°
2026-04-21 09:11 33.47647 33.40301 39042 ft 443 kts 200°
2026-04-21 09:11 33.41617 33.38828 39042 ft 443 kts 200°
2026-04-21 09:12 33.35587 33.37359 39042 ft 443 kts 200°
2026-04-21 09:12 33.29558 33.35894 39028 ft 443 kts 200°
2026-04-21 09:13 33.23530 33.34431 39043 ft 443 kts 200°
2026-04-21 09:13 33.17496 33.32970 39042 ft 443 kts 200°
2026-04-21 09:14 33.11467 33.31509 39048 ft 443 kts 200°
2026-04-21 09:14 33.05446 33.30053 39046 ft 442 kts 200°
2026-04-21 09:15 32.99429 33.28600 39047 ft 442 kts 200°
2026-04-21 09:15 32.93412 33.27151 39049 ft 442 kts 200°
2026-04-21 09:16 32.87392 33.25701 39028 ft 441 kts 200°
2026-04-21 09:16 32.81402 33.24260 39048 ft 440 kts 200°
2026-04-21 09:17 32.75407 33.22820 39051 ft 440 kts 200°
2026-04-21 09:17 32.69411 33.21383 39055 ft 440 kts 200°
2026-04-21 09:18 32.63435 33.19952 39052 ft 437 kts 200°
2026-04-21 09:18 32.57480 33.18527 39053 ft 438 kts 200°
2026-04-21 09:19 32.51515 33.17101 39056 ft 438 kts 200°
2026-04-21 09:19 32.45552 33.15679 39048 ft 438 kts 200°
2026-04-21 09:20 32.39602 33.14262 39056 ft 437 kts 200°
2026-04-21 09:20 32.33651 33.12844 39056 ft 437 kts 200°
2026-04-21 09:21 32.27701 33.11430 39056 ft 437 kts 200°
2026-04-21 09:21 32.21680 33.10323 39052 ft 443 kts 193°
2026-04-21 09:22 32.15460 33.10285 39057 ft 453 kts 186°
2026-04-21 09:22 32.09179 33.10628 39061 ft 453 kts 187°
2026-04-21 09:23 32.02903 33.10950 39059 ft 452 kts 187°
2026-04-21 09:23 31.96652 33.11269 39063 ft 449 kts 187°
2026-04-21 09:24 31.90410 33.11580 39055 ft 450 kts 187°
2026-04-21 09:24 31.84160 33.11894 39061 ft 450 kts 187°
2026-04-21 09:25 31.77913 33.12207 39029 ft 450 kts 188°
2026-04-21 09:25 31.71680 33.12522 39058 ft 449 kts 188°
2026-04-21 09:26 31.65447 33.12835 39059 ft 449 kts 188°
2026-04-21 09:26 31.59218 33.13151 39062 ft 449 kts 188°
2026-04-21 09:27 31.52988 33.13462 39055 ft 448 kts 188°
2026-04-21 09:27 31.46780 33.13773 39063 ft 448 kts 188°
2026-04-21 09:28 31.40551 33.14236 39065 ft 456 kts 182°
2026-04-21 09:28 31.34306 33.16082 39050 ft 474 kts 168°
2026-04-21 09:29 31.28296 33.19534 39056 ft 487 kts 160°
2026-04-21 09:29 31.22364 33.23310 39063 ft 486 kts 161°
2026-04-21 09:30 31.16427 33.27054 39052 ft 486 kts 161°
2026-04-21 09:30 31.10487 33.30791 39060 ft 486 kts 161°
2026-04-21 09:31 31.04546 33.34523 39053 ft 486 kts 161°
2026-04-21 09:31 30.98604 33.38251 39051 ft 487 kts 161°
2026-04-21 09:32 30.92650 33.41980 39050 ft 487 kts 161°
2026-04-21 09:32 30.86699 33.45703 39052 ft 487 kts 161°
2026-04-21 09:33 30.80744 33.49422 39045 ft 487 kts 161°
2026-04-21 09:33 30.74787 33.53137 39047 ft 486 kts 161°
2026-04-21 09:34 30.68830 33.56850 39045 ft 488 kts 162°
2026-04-21 09:34 30.62861 33.60564 39045 ft 487 kts 162°
2026-04-21 09:35 30.56895 33.64271 39045 ft 488 kts 162°
2026-04-21 09:35 30.50928 33.67970 39045 ft 487 kts 162°
2026-04-21 09:36 30.44958 33.71664 39045 ft 488 kts 162°
2026-04-21 09:36 30.38971 33.75367 39042 ft 489 kts 162°
2026-04-21 09:37 30.32980 33.79067 39042 ft 489 kts 162°
2026-04-21 09:37 30.26991 33.82765 39045 ft 489 kts 162°
2026-04-21 09:38 30.21002 33.86455 39045 ft 489 kts 162°
2026-04-21 09:38 30.15012 33.90135 39013 ft 489 kts 163°
2026-04-21 09:39 30.09013 33.93819 39041 ft 490 kts 163°
2026-04-21 09:39 30.03013 33.97498 39041 ft 490 kts 163°
2026-04-21 09:40 29.97000 34.01181 39044 ft 490 kts 163°
2026-04-21 09:40 29.90993 34.04857 39044 ft 490 kts 163°
2026-04-21 09:41 29.84985 34.08529 39038 ft 489 kts 163°
2026-04-21 09:41 29.78978 34.12196 39045 ft 490 kts 163°
2026-04-21 09:42 29.72970 34.15858 39050 ft 490 kts 163°
2026-04-21 09:42 29.67174 34.20124 39043 ft 511 kts 146°
2026-04-21 09:43 29.64721 34.23149 39037 ft 527 kts 134°
2026-04-21 09:43 29.62735 34.26730 39044 ft 539 kts 122°
2026-04-21 09:43 29.61311 34.30735 39041 ft 547 kts 110°
2026-04-21 09:43 29.60515 34.35018 39043 ft 552 kts 97°
2026-04-21 09:44 29.60441 34.43831 39038 ft 554 kts 88°
2026-04-21 09:44 29.60507 34.52648 39038 ft 552 kts 98°
2026-04-21 09:45 29.59826 34.56964 39038 ft 549 kts 110°
2026-04-21 09:45 29.58517 34.61037 39038 ft 541 kts 122°
2026-04-21 09:45 29.56640 34.64719 39031 ft 530 kts 134°
2026-04-21 09:45 29.54277 34.67876 39031 ft 515 kts 146°
2026-04-21 09:46 29.51546 34.70432 39034 ft 502 kts 155°
2026-04-21 09:46 29.48736 34.72821 39029 ft 510 kts 148°
2026-04-21 09:46 29.46241 34.75785 39020 ft 525 kts 135°
2026-04-21 09:46 29.44202 34.79306 39024 ft 538 kts 123°
2026-04-21 09:47 29.42713 34.83265 39025 ft 547 kts 111°
2026-04-21 09:47 29.41842 34.87516 39020 ft 552 kts 99°
2026-04-21 09:47 29.41756 34.96295 39024 ft 553 kts 83°
2026-04-21 09:48 29.43195 35.04909 39016 ft 550 kts 70°
2026-04-21 09:48 29.45242 35.13343 39018 ft 550 kts 72°
2026-04-21 09:49 29.47214 35.21800 39030 ft 550 kts 72°
2026-04-21 09:49 29.49184 35.30280 39030 ft 551 kts 72°
2026-04-21 09:50 29.50496 35.35933 39026 ft 550 kts 72°
2026-04-21 09:50 29.53109 35.47217 39024 ft 550 kts 72°
2026-04-21 09:51 29.55095 35.55686 39017 ft 551 kts 71°
2026-04-21 09:51 29.57114 35.64150 39023 ft 550 kts 71°
2026-04-21 09:52 29.59118 35.72608 39025 ft 550 kts 71°
2026-04-21 09:52 29.61091 35.81088 39024 ft 552 kts 75°
2026-04-21 09:53 29.62527 35.89742 39022 ft 553 kts 77°
2026-04-21 09:53 29.63946 35.98402 39023 ft 552 kts 77°
2026-04-21 09:54 29.65358 36.07068 39029 ft 553 kts 77°
2026-04-21 09:54 29.66764 36.15737 39024 ft 553 kts 77°
2026-04-21 09:55 29.68162 36.24405 39057 ft 552 kts 77°
2026-04-21 09:55 29.69554 36.33074 39024 ft 552 kts 77°
2026-04-21 09:56 29.70945 36.41744 39027 ft 552 kts 77°
2026-04-21 09:56 29.72355 36.50415 39007 ft 553 kts 77°
2026-04-21 09:57 29.73765 36.59104 39024 ft 555 kts 77°
2026-04-21 09:57 29.74567 36.67901 39028 ft 555 kts 91°
2026-04-21 09:58 29.73617 36.76658 39028 ft 552 kts 107°
2026-04-21 09:58 29.71894 36.85245 39058 ft 552 kts 106°
2026-04-21 09:59 29.70192 36.93816 39025 ft 550 kts 106°
2026-04-21 09:59 29.68479 37.02386 39036 ft 551 kts 106°
2026-04-21 10:00 29.66762 37.10942 39033 ft 551 kts 106°
2026-04-21 10:00 29.65032 37.19512 39034 ft 551 kts 106°
2026-04-21 10:01 29.63302 37.28066 39032 ft 550 kts 106°
2026-04-21 10:01 29.61566 37.36611 39041 ft 550 kts 106°
2026-04-21 10:02 29.58955 37.49420 39029 ft 549 kts 107°
2026-04-21 10:03 29.57210 37.57940 39043 ft 549 kts 107°
2026-04-21 10:03 29.55459 37.66458 39049 ft 550 kts 107°
2026-04-21 10:04 29.53701 37.74985 39050 ft 550 kts 107°
2026-04-21 10:04 29.51937 37.83511 39050 ft 550 kts 107°
2026-04-21 10:05 29.50168 37.92030 39054 ft 550 kts 107°
2026-04-21 10:05 29.48397 38.00546 39053 ft 550 kts 106°
2026-04-21 10:06 29.46852 38.09146 39054 ft 551 kts 104°
2026-04-21 10:06 29.45373 38.17762 39064 ft 551 kts 104°
2026-04-21 10:07 29.43855 38.26367 39061 ft 552 kts 104°
2026-04-21 10:07 29.42318 38.34968 39058 ft 551 kts 104°
2026-04-21 10:08 29.40774 38.43560 39067 ft 551 kts 105°
2026-04-21 10:08 29.39225 38.52151 39075 ft 551 kts 105°
2026-04-21 10:09 29.37670 38.60741 39070 ft 551 kts 105°
2026-04-21 10:09 29.36112 38.69324 39068 ft 551 kts 105°
2026-04-21 10:10 29.34549 38.77913 39072 ft 551 kts 105°
2026-04-21 10:10 29.32979 38.86495 39076 ft 551 kts 105°
2026-04-21 10:11 29.31349 38.95059 39076 ft 551 kts 107°
2026-04-21 10:11 29.29540 39.03562 39076 ft 550 kts 107°
2026-04-21 10:12 29.27734 39.12062 39074 ft 550 kts 107°
2026-04-21 10:12 29.25943 39.20571 39078 ft 551 kts 107°
2026-04-21 10:13 29.24148 39.29082 39069 ft 551 kts 107°
2026-04-21 10:13 29.22349 39.37583 39071 ft 551 kts 107°
2026-04-21 10:14 29.20543 39.46087 39067 ft 551 kts 107°
2026-04-21 10:14 29.18734 39.54587 39068 ft 551 kts 107°
2026-04-21 10:15 29.16918 39.63086 39061 ft 551 kts 107°
2026-04-21 10:15 29.15093 39.71593 39060 ft 551 kts 108°
2026-04-21 10:16 29.13263 39.80091 39061 ft 551 kts 107°
2026-04-21 10:16 29.11431 39.88587 39060 ft 551 kts 108°
2026-04-21 10:17 29.09940 39.97189 39056 ft 553 kts 103°
2026-04-21 10:17 29.08585 40.05835 39049 ft 554 kts 103°
2026-04-21 10:18 29.07216 40.14492 39052 ft 554 kts 103°
2026-04-21 10:18 29.05838 40.23142 39049 ft 554 kts 103°
2026-04-21 10:19 29.04451 40.31791 39046 ft 555 kts 103°
2026-04-21 10:19 29.03064 40.40439 39045 ft 554 kts 103°
2026-04-21 10:20 29.01669 40.49087 39032 ft 555 kts 103°
2026-04-21 10:20 29.00266 40.57750 39038 ft 556 kts 103°
2026-04-21 10:21 28.98861 40.66402 39035 ft 555 kts 103°
2026-04-21 10:21 28.97447 40.75049 39029 ft 555 kts 103°
2026-04-21 10:22 28.96025 40.83698 39029 ft 555 kts 103°
2026-04-21 10:22 28.94602 40.92348 39008 ft 556 kts 103°
2026-04-21 10:23 28.93169 41.01016 39018 ft 557 kts 103°
2026-04-21 10:23 28.91728 41.09682 39016 ft 557 kts 103°
2026-04-21 10:24 28.90285 41.18342 39006 ft 556 kts 104°
2026-04-21 10:24 28.88833 41.26995 39005 ft 556 kts 104°
2026-04-21 10:25 28.87378 41.35647 38990 ft 556 kts 104°
2026-04-21 10:25 28.85918 41.44290 38993 ft 556 kts 104°
2026-04-21 10:26 28.84454 41.52928 38985 ft 556 kts 104°
2026-04-21 10:26 28.82984 41.61569 38980 ft 556 kts 104°
2026-04-21 10:27 28.81508 41.70211 38975 ft 556 kts 104°
2026-04-21 10:27 28.80024 41.78844 38961 ft 556 kts 104°
2026-04-21 10:28 28.78537 41.87486 38967 ft 557 kts 104°
2026-04-21 10:28 28.77044 41.96120 38963 ft 556 kts 104°
2026-04-21 10:29 28.75546 42.04762 38957 ft 557 kts 104°
2026-04-21 10:29 28.74040 42.13404 38955 ft 557 kts 104°
2026-04-21 10:30 28.72526 42.22041 38981 ft 557 kts 104°
2026-04-21 10:30 28.71012 42.30664 38950 ft 556 kts 104°
2026-04-21 10:31 28.69492 42.39279 38946 ft 556 kts 104°
2026-04-21 10:31 28.67965 42.47892 38939 ft 556 kts 104°
2026-04-21 10:32 28.66434 42.56514 38940 ft 556 kts 104°
2026-04-21 10:32 28.64898 42.65123 38938 ft 556 kts 104°
2026-04-21 10:33 28.63285 42.73713 38936 ft 556 kts 106°
2026-04-21 10:33 28.61510 42.82253 38931 ft 556 kts 107°
2026-04-21 10:34 28.59744 42.90792 38929 ft 556 kts 106°
2026-04-21 10:34 28.57992 42.99333 38929 ft 555 kts 106°
2026-04-21 10:35 28.56240 43.07856 38929 ft 552 kts 106°
2026-04-21 10:35 28.54490 43.16349 38936 ft 553 kts 106°
2026-04-21 10:36 28.52733 43.24845 38922 ft 553 kts 106°
2026-04-21 10:36 28.50971 43.33343 38944 ft 553 kts 106°
2026-04-21 10:37 28.49205 43.41825 38927 ft 552 kts 106°
2026-04-21 10:37 28.47432 43.50303 38918 ft 553 kts 106°
2026-04-21 10:38 28.45653 43.58784 38932 ft 553 kts 106°
2026-04-21 10:38 28.43871 43.67257 38918 ft 553 kts 107°
2026-04-21 10:39 28.42082 43.75733 38926 ft 553 kts 107°
2026-04-21 10:39 28.40288 43.84202 38913 ft 553 kts 107°
2026-04-21 10:40 28.38502 43.92685 38917 ft 554 kts 106°
2026-04-21 10:40 28.36742 44.01173 38917 ft 553 kts 106°
2026-04-21 10:41 28.34971 44.09665 38919 ft 554 kts 106°
2026-04-21 10:41 28.33192 44.18153 38919 ft 554 kts 106°
2026-04-21 10:42 28.31408 44.26635 38917 ft 554 kts 106°
2026-04-21 10:42 28.29619 44.35118 38919 ft 554 kts 106°
2026-04-21 10:43 28.27824 44.43596 38937 ft 554 kts 106°
2026-04-21 10:43 28.26028 44.52051 38920 ft 552 kts 107°
2026-04-21 10:44 28.24225 44.60502 38918 ft 552 kts 107°
2026-04-21 10:44 28.22418 44.68952 38919 ft 553 kts 106°
2026-04-21 10:45 28.20609 44.77402 38920 ft 553 kts 107°
2026-04-21 10:45 28.18792 44.85847 38916 ft 553 kts 107°
2026-04-21 10:46 28.16968 44.94294 38916 ft 553 kts 107°
2026-04-21 10:46 28.15074 45.02711 38913 ft 551 kts 111°
2026-04-21 10:47 28.12143 45.10630 38915 ft 542 kts 124°
2026-04-21 10:47 28.08290 45.17904 38910 ft 541 kts 128°
2026-04-21 10:48 28.04397 45.25174 38912 ft 540 kts 127°
2026-04-21 10:48 28.00511 45.32428 38916 ft 540 kts 128°
2026-04-21 10:49 27.96616 45.39676 38912 ft 541 kts 127°
2026-04-21 10:49 27.92716 45.46924 38910 ft 540 kts 127°
2026-04-21 10:50 27.89045 45.54341 38914 ft 547 kts 118°
2026-04-21 10:50 27.86608 45.62503 38919 ft 552 kts 105°
2026-04-21 10:51 27.84905 45.70951 38914 ft 553 kts 105°
2026-04-21 10:51 27.83167 45.79396 38913 ft 552 kts 105°
2026-04-21 10:52 27.81424 45.87831 38920 ft 553 kts 105°
2026-04-21 10:52 27.79677 45.96259 38897 ft 552 kts 105°
2026-04-21 10:53 27.77927 46.04684 38918 ft 552 kts 105°
2026-04-21 10:53 27.76174 46.13093 38913 ft 551 kts 105°
2026-04-21 10:54 27.74418 46.21495 38918 ft 550 kts 105°
2026-04-21 10:54 27.72661 46.29887 38918 ft 551 kts 105°
2026-04-21 10:55 27.70909 46.38288 38929 ft 551 kts 105°
2026-04-21 10:55 27.69156 46.46671 38922 ft 549 kts 105°
2026-04-21 10:56 27.67394 46.55042 38917 ft 550 kts 105°
2026-04-21 10:56 27.65632 46.63406 38918 ft 548 kts 105°
2026-04-21 10:57 27.63867 46.71757 38920 ft 549 kts 105°
2026-04-21 10:57 27.62093 46.80117 38919 ft 549 kts 105°
2026-04-21 10:58 27.60315 46.88466 38915 ft 549 kts 105°
2026-04-21 10:58 27.58533 46.96816 38921 ft 549 kts 106°
2026-04-21 10:59 27.56749 47.05140 38893 ft 546 kts 106°
2026-04-21 10:59 27.54960 47.13445 38917 ft 547 kts 106°
2026-04-21 11:00 27.53173 47.21747 38918 ft 546 kts 106°
2026-04-21 11:00 27.51381 47.30037 38918 ft 546 kts 106°
2026-04-21 11:01 27.49582 47.38327 38918 ft 546 kts 106°
2026-04-21 11:01 27.47786 47.46589 38915 ft 543 kts 106°
2026-04-21 11:02 27.45086 47.58955 38914 ft 544 kts 106°
2026-04-21 11:02 27.42971 47.67063 38913 ft 540 kts 111°
2026-04-21 11:03 27.40695 47.75100 38912 ft 540 kts 111°
2026-04-21 11:03 27.38417 47.83142 38914 ft 540 kts 111°
2026-04-21 11:04 27.36135 47.91159 38918 ft 539 kts 111°
2026-04-21 11:04 27.33845 47.99172 38921 ft 539 kts 111°
2026-04-21 11:05 27.31553 48.07181 38910 ft 539 kts 111°
2026-04-21 11:05 27.29345 48.15221 38918 ft 541 kts 109°
2026-04-21 11:06 27.27238 48.23327 38928 ft 541 kts 109°
2026-04-21 11:06 27.25110 48.31403 38917 ft 540 kts 109°
2026-04-21 11:07 27.22965 48.39471 38916 ft 540 kts 110°
2026-04-21 11:07 27.20814 48.47538 38906 ft 539 kts 110°
2026-04-21 11:08 27.18656 48.55600 38908 ft 541 kts 110°
2026-04-21 11:08 27.16494 48.63667 38904 ft 540 kts 110°
2026-04-21 11:09 27.14334 48.71715 38898 ft 539 kts 110°
2026-04-21 11:09 27.12169 48.79749 38892 ft 539 kts 110°
2026-04-21 11:10 27.10192 48.87860 38889 ft 543 kts 102°
2026-04-21 11:10 27.09467 48.96295 38887 ft 545 kts 92°
2026-04-21 11:11 27.09099 49.04764 38886 ft 544 kts 93°
2026-04-21 11:11 27.08707 49.13238 38878 ft 546 kts 93°
2026-04-21 11:12 27.08309 49.21720 38873 ft 545 kts 93°
2026-04-21 11:12 27.07908 49.30201 38867 ft 545 kts 93°
2026-04-21 11:13 27.07483 49.38685 38865 ft 546 kts 93°
2026-04-21 11:13 27.07072 49.47172 38865 ft 546 kts 93°
2026-04-21 11:14 27.06659 49.55653 38859 ft 545 kts 93°
2026-04-21 11:14 27.06240 49.64115 38871 ft 544 kts 93°
2026-04-21 11:15 27.05816 49.72581 38884 ft 545 kts 93°
2026-04-21 11:15 27.05385 49.81037 38895 ft 544 kts 93°
2026-04-21 11:16 27.04953 49.89495 38899 ft 544 kts 93°
2026-04-21 11:16 27.04557 49.97949 38885 ft 544 kts 89°
2026-04-21 11:17 27.04643 50.06404 38897 ft 543 kts 88°
2026-04-21 11:17 27.04719 50.14859 38897 ft 543 kts 88°
2026-04-21 11:18 27.04798 50.23304 38897 ft 541 kts 88°
2026-04-21 11:18 27.04833 50.31703 38894 ft 540 kts 92°
2026-04-21 11:19 27.03669 50.39993 38895 ft 539 kts 108°
2026-04-21 11:19 27.01008 50.47767 38894 ft 533 kts 117°
2026-04-21 11:20 26.98107 50.55406 38894 ft 535 kts 116°
2026-04-21 11:20 26.95201 50.63069 38894 ft 535 kts 116°
2026-04-21 11:21 26.92293 50.70712 38900 ft 533 kts 116°
2026-04-21 11:21 26.89381 50.78336 38895 ft 534 kts 116°
2026-04-21 11:22 26.86466 50.85964 38871 ft 534 kts 116°
2026-04-21 11:22 26.83541 50.93600 38894 ft 535 kts 116°
2026-04-21 11:23 26.80620 51.01233 38891 ft 534 kts 116°
2026-04-21 11:23 26.77719 51.08876 38896 ft 535 kts 114°
2026-04-21 11:24 26.75191 51.16708 38896 ft 537 kts 112°
2026-04-21 11:24 26.72676 51.24554 38897 ft 537 kts 112°
2026-04-21 11:25 26.70153 51.32402 38886 ft 537 kts 112°
2026-04-21 11:25 26.67631 51.40237 38892 ft 536 kts 112°
2026-04-21 11:26 26.65110 51.48064 38889 ft 536 kts 112°
2026-04-21 11:26 26.62593 51.55892 38889 ft 536 kts 112°
2026-04-21 11:27 26.60074 51.63716 38883 ft 536 kts 112°
2026-04-21 11:27 26.57551 51.71527 38879 ft 536 kts 112°
2026-04-21 11:28 26.55025 51.79342 38879 ft 536 kts 112°
2026-04-21 11:28 26.52496 51.87149 38873 ft 535 kts 112°
2026-04-21 11:29 26.49929 51.94932 38857 ft 535 kts 112°
2026-04-21 11:29 26.47330 52.02714 38865 ft 536 kts 112°
2026-04-21 11:30 26.44735 52.10479 38864 ft 534 kts 112°
2026-04-21 11:30 26.42147 52.18230 38863 ft 535 kts 112°
2026-04-21 11:31 26.39552 52.25982 38859 ft 534 kts 112°
2026-04-21 11:31 26.36959 52.33708 38853 ft 531 kts 112°
2026-04-21 11:32 26.34329 52.41392 38857 ft 532 kts 115°
2026-04-21 11:32 26.31399 52.48935 38850 ft 531 kts 116°
2026-04-21 11:33 26.28457 52.56462 38846 ft 529 kts 116°
2026-04-21 11:33 26.25558 52.63976 38841 ft 530 kts 116°
2026-04-21 11:34 26.22659 52.71511 38838 ft 532 kts 115°
2026-04-21 11:34 26.19768 52.79070 38832 ft 530 kts 115°
2026-04-21 11:35 26.16894 52.86580 38827 ft 528 kts 115°
2026-04-21 11:35 26.14008 52.94091 38826 ft 529 kts 115°
2026-04-21 11:36 26.11116 53.01601 38680 ft 529 kts 115°
2026-04-21 11:36 26.09678 53.05343 38404 ft 526 kts 114°
2026-04-21 11:36 26.08286 53.09092 37957 ft 525 kts 114°
2026-04-21 11:37 26.06921 53.12838 37368 ft 523 kts 114°
2026-04-21 11:37 26.05565 53.16568 36742 ft 520 kts 114°
2026-04-21 11:37 26.04211 53.20275 36136 ft 517 kts 114°
2026-04-21 11:37 26.02861 53.23955 35554 ft 513 kts 114°
2026-04-21 11:38 26.01517 53.27608 34972 ft 509 kts 114°
2026-04-21 11:38 26.00183 53.31226 34408 ft 505 kts 115°
2026-04-21 11:38 25.98856 53.34814 33857 ft 501 kts 115°
2026-04-21 11:38 25.97539 53.38371 33230 ft 496 kts 115°
2026-04-21 11:39 25.96235 53.41892 32620 ft 492 kts 115°
2026-04-21 11:39 25.94943 53.45380 32015 ft 487 kts 115°
2026-04-21 11:39 25.93660 53.48842 31430 ft 485 kts 115°
2026-04-21 11:39 25.92397 53.52316 30855 ft 488 kts 114°
2026-04-21 11:40 25.91184 53.55836 30294 ft 490 kts 113°
2026-04-21 11:40 25.89989 53.59363 29717 ft 487 kts 113°
2026-04-21 11:40 25.88803 53.62852 29066 ft 482 kts 114°
2026-04-21 11:40 25.87621 53.66305 28440 ft 476 kts 114°
2026-04-21 11:41 25.86449 53.69714 27827 ft 471 kts 114°
2026-04-21 11:41 25.85424 53.72685 27296 ft 468 kts 114°
2026-04-21 11:41 25.84259 53.76046 26703 ft 466 kts 114°
2026-04-21 11:41 25.83101 53.79381 26113 ft 462 kts 114°
2026-04-21 11:42 25.81952 53.82685 25545 ft 457 kts 114°
2026-04-21 11:42 25.80813 53.85956 24986 ft 454 kts 114°
2026-04-21 11:42 25.79675 53.89220 24440 ft 454 kts 114°
2026-04-21 11:42 25.78539 53.92479 23904 ft 453 kts 114°
2026-04-21 11:43 25.77407 53.95724 23375 ft 451 kts 113°
2026-04-21 11:43 25.76281 53.98952 22750 ft 448 kts 113°
2026-04-21 11:43 25.75170 54.02155 22133 ft 444 kts 112°
2026-04-21 11:43 25.74154 54.05371 21528 ft 441 kts 110°
2026-04-21 11:44 25.73195 54.08573 20933 ft 437 kts 110°
2026-04-21 11:44 25.72248 54.11749 20350 ft 432 kts 110°
2026-04-21 11:44 25.71300 54.14889 19781 ft 429 kts 110°
2026-04-21 11:44 25.70351 54.17999 19221 ft 425 kts 110°
2026-04-21 11:45 25.69404 54.21083 18667 ft 421 kts 110°
2026-04-21 11:45 25.68461 54.24137 18129 ft 418 kts 110°
2026-04-21 11:45 25.67526 54.27163 17516 ft 414 kts 110°
2026-04-21 11:45 25.66598 54.30165 16900 ft 411 kts 110°
2026-04-21 11:46 25.65677 54.33140 16306 ft 407 kts 110°
2026-04-21 11:46 25.64763 54.36091 15720 ft 404 kts 111°
2026-04-21 11:46 25.63855 54.39017 15139 ft 401 kts 111°
2026-04-21 11:46 25.62955 54.41922 14581 ft 398 kts 111°
2026-04-21 11:47 25.62061 54.44809 14031 ft 395 kts 111°
2026-04-21 11:47 25.61174 54.47674 13464 ft 393 kts 111°
2026-04-21 11:47 25.60289 54.50519 12854 ft 390 kts 111°
2026-04-21 11:47 25.59412 54.53340 12332 ft 385 kts 111°
2026-04-21 11:48 25.58571 54.56100 12055 ft 374 kts 109°
2026-04-21 11:48 25.58098 54.58899 11812 ft 372 kts 96°
2026-04-21 11:48 25.58138 54.61774 11591 ft 376 kts 84°
2026-04-21 11:48 25.58507 54.64588 11455 ft 362 kts 83°
2026-04-21 11:49 25.58852 54.67270 11282 ft 343 kts 83°
2026-04-21 11:49 25.59173 54.69814 11110 ft 325 kts 83°
2026-04-21 11:49 25.59475 54.72220 10941 ft 307 kts 83°
2026-04-21 11:49 25.59764 54.74522 10573 ft 299 kts 84°
2026-04-21 11:50 25.60042 54.76777 10314 ft 296 kts 83°
2026-04-21 11:50 25.60324 54.79048 10083 ft 299 kts 83°
2026-04-21 11:50 25.60608 54.81315 9895 ft 296 kts 83°
2026-04-21 11:50 25.60890 54.83583 9789 ft 298 kts 83°
2026-04-21 11:51 25.61048 54.85856 9666 ft 295 kts 96°
2026-04-21 11:51 25.60604 54.88044 9544 ft 291 kts 116°
2026-04-21 11:51 25.59798 54.90085 9421 ft 289 kts 117°
2026-04-21 11:51 25.58998 54.92121 9297 ft 288 kts 116°
2026-04-21 11:52 25.58206 54.94150 9166 ft 287 kts 116°
2026-04-21 11:52 25.57418 54.96174 9048 ft 286 kts 116°
2026-04-21 11:52 25.56633 54.98189 8971 ft 285 kts 116°
2026-04-21 11:52 25.55849 55.00201 8898 ft 285 kts 116°
2026-04-21 11:53 25.55066 55.02211 8818 ft 284 kts 116°
2026-04-21 11:53 25.54215 55.04174 8750 ft 282 kts 123°
2026-04-21 11:53 25.53234 55.06047 8675 ft 282 kts 123°
2026-04-21 11:53 25.52259 55.07922 8608 ft 281 kts 123°
2026-04-21 11:54 25.51289 55.09792 8527 ft 280 kts 123°
2026-04-21 11:54 25.50320 55.11659 8451 ft 280 kts 123°
2026-04-21 11:54 25.49352 55.13522 8379 ft 279 kts 123°
2026-04-21 11:54 25.48386 55.15381 8305 ft 279 kts 123°
2026-04-21 11:55 25.47432 55.17218 8248 ft 272 kts 123°
2026-04-21 11:55 25.46513 55.18991 8166 ft 261 kts 123°
2026-04-21 11:55 25.45494 55.20584 8035 ft 248 kts 135°
2026-04-21 11:55 25.44331 55.21986 8024 ft 252 kts 135°
2026-04-21 11:56 25.43154 55.23420 8023 ft 251 kts 135°
2026-04-21 11:56 25.41991 55.24850 8022 ft 250 kts 135°
2026-04-21 11:56 25.40829 55.26281 8022 ft 251 kts 135°
2026-04-21 11:56 25.39667 55.27710 8021 ft 250 kts 135°
2026-04-21 11:57 25.38507 55.29135 8025 ft 250 kts 135°
2026-04-21 11:57 25.37347 55.30561 8025 ft 250 kts 135°
2026-04-21 11:57 25.36174 55.31969 8020 ft 249 kts 140°
2026-04-21 11:57 25.34833 55.33132 7873 ft 244 kts 152°
2026-04-21 11:58 25.33349 55.34014 7587 ft 242 kts 155°
2026-04-21 11:58 25.31871 55.34866 7411 ft 239 kts 155°
2026-04-21 11:58 25.30387 55.35732 7278 ft 243 kts 155°
2026-04-21 11:58 25.28904 55.36600 7137 ft 240 kts 154°
2026-04-21 11:59 25.27434 55.37461 7026 ft 240 kts 154°
2026-04-21 11:59 25.25968 55.38319 6941 ft 238 kts 154°
2026-04-21 11:59 25.24510 55.39174 6827 ft 238 kts 155°
2026-04-21 11:59 25.23055 55.40029 6697 ft 237 kts 154°
2026-04-21 12:00 25.21603 55.40880 6588 ft 237 kts 154°
2026-04-21 12:00 25.20157 55.41726 6447 ft 234 kts 154°
2026-04-21 12:00 25.18723 55.42564 6341 ft 233 kts 155°
2026-04-21 12:00 25.17295 55.43399 6210 ft 232 kts 155°
2026-04-21 12:01 25.15879 55.44227 6101 ft 231 kts 154°
2026-04-21 12:01 25.14446 55.45067 5988 ft 236 kts 153°
2026-04-21 12:01 25.13011 55.45906 5850 ft 232 kts 154°
2026-04-21 12:01 25.11626 55.46803 5785 ft 233 kts 144°
2026-04-21 12:02 25.10514 55.48123 5696 ft 238 kts 123°
2026-04-21 12:02 25.08808 55.51237 5443 ft 237 kts 123°
2026-04-21 12:02 25.07948 55.52791 5327 ft 239 kts 123°
2026-04-21 12:03 25.07087 55.54330 5196 ft 234 kts 123°
2026-04-21 12:03 25.06225 55.55867 5036 ft 237 kts 122°
2026-04-21 12:03 25.05362 55.57404 4811 ft 235 kts 122°
2026-04-21 12:03 25.04509 55.58923 4612 ft 234 kts 121°
2026-04-21 12:04 25.03650 55.60453 4388 ft 235 kts 121°
2026-04-21 12:04 25.02800 55.61984 4159 ft 235 kts 120°
2026-04-21 12:04 25.01950 55.63525 3952 ft 235 kts 120°
2026-04-21 12:04 25.01107 55.65052 3734 ft 233 kts 120°
2026-04-21 12:05 25.00256 55.66586 3535 ft 238 kts 121°
2026-04-21 12:05 24.99394 55.68113 3406 ft 230 kts 120°
2026-04-21 12:05 24.98571 55.69568 3293 ft 218 kts 120°
2026-04-21 12:05 24.97787 55.70952 3180 ft 208 kts 118°
2026-04-21 12:06 24.97053 55.72269 2959 ft 199 kts 118°
2026-04-21 12:06 24.96320 55.73589 2411 ft 208 kts 119°
2026-04-21 12:06 24.95567 55.74940 2099 ft 201 kts 118°
2026-04-21 12:06 24.94836 55.76255 2023 ft 207 kts 118°
2026-04-21 12:07 24.94446 55.77700 2013 ft 193 kts 83°
2026-04-21 12:07 24.94911 55.79036 2021 ft 187 kts 46°
2026-04-21 12:07 24.95958 55.79852 2021 ft 189 kts 27°
2026-04-21 12:07 24.97095 55.80576 2017 ft 188 kts 29°
2026-04-21 12:08 24.98203 55.81297 2019 ft 186 kts 25°
2026-04-21 12:08 24.99440 55.81528 2015 ft 179 kts 348°
2026-04-21 12:08 25.00526 55.80868 2020 ft 186 kts 313°
2026-04-21 12:08 25.01220 55.79690 2010 ft 188 kts 303°
2026-04-21 12:09 25.01899 55.78453 2002 ft 186 kts 303°
2026-04-21 12:09 25.02545 55.77266 2017 ft 179 kts 304°
2026-04-21 12:09 25.03204 55.76079 2019 ft 184 kts 304°
2026-04-21 12:09 25.03868 55.74893 2016 ft 181 kts 304°
2026-04-21 12:10 25.04550 55.73675 2024 ft 194 kts 304°
2026-04-21 12:10 25.05251 55.72425 2012 ft 188 kts 304°
2026-04-21 12:10 25.05930 55.71202 2019 ft 188 kts 304°
2026-04-21 12:10 25.06617 55.69980 2018 ft 184 kts 303°
2026-04-21 12:11 25.07279 55.68796 2023 ft 183 kts 305°
2026-04-21 12:11 25.07958 55.67592 2003 ft 185 kts 304°
2026-04-21 12:11 25.08635 55.66379 2010 ft 183 kts 304°
2026-04-21 12:11 25.09262 55.65241 2010 ft 166 kts 305°
2026-04-21 12:12 25.09874 55.64139 2013 ft 170 kts 305°
2026-04-21 12:12 25.10489 55.63038 2014 ft 170 kts 305°
2026-04-21 12:12 25.11116 55.61914 2019 ft 171 kts 307°
2026-04-21 12:12 25.11730 55.60808 2014 ft 169 kts 307°
2026-04-21 12:13 25.12335 55.59719 2018 ft 166 kts 307°
2026-04-21 12:13 25.12931 55.58651 2013 ft 161 kts 306°
2026-04-21 12:13 25.13523 55.57594 2018 ft 165 kts 305°
2026-04-21 12:13 25.14120 55.56527 2014 ft 157 kts 305°
2026-04-21 12:14 25.14677 55.55526 2019 ft 153 kts 306°
2026-04-21 12:14 25.15234 55.54528 2014 ft 153 kts 306°
2026-04-21 12:14 25.15801 55.53512 2016 ft 156 kts 307°
2026-04-21 12:14 25.16354 55.52511 2011 ft 151 kts 307°
2026-04-21 12:15 25.16905 55.51527 2012 ft 146 kts 305°
2026-04-21 12:15 25.17423 55.50596 2015 ft 142 kts 305°
2026-04-21 12:15 25.17946 55.49660 2020 ft 144 kts 304°
2026-04-21 12:15 25.18474 55.48713 2020 ft 146 kts 306°
2026-04-21 12:16 25.19016 55.47764 2012 ft 146 kts 306°
2026-04-21 12:16 25.19527 55.46841 1949 ft 136 kts 306°
2026-04-21 12:16 25.20013 55.45966 1703 ft 133 kts 306°
2026-04-21 12:16 25.20494 55.45099 1424 ft 133 kts 305°
2026-04-21 12:17 25.20975 55.44229 1143 ft 132 kts 306°
2026-04-21 12:17 25.21452 55.43369 887 ft 131 kts 305°
2026-04-21 12:17 25.21912 55.42536 727 ft 126 kts 306°
2026-04-21 12:17 25.22370 55.41711 568 ft 129 kts 306°
2026-04-21 12:18 25.22847 55.40858 410 ft 130 kts 303°
2026-04-21 12:18 25.23293 55.40031 237 ft 127 kts 302°
2026-04-21 12:18 25.23748 55.39191 99 ft 127 kts 303°
2026-04-21 12:18 25.24175 55.38425 56 ft 97 kts 303°
2026-04-21 12:19 25.24424 55.37982 45 ft 39 kts 294°
2026-04-21 12:19 25.24396 55.37869 42 ft 0 kts 223°
2026-04-21 12:20 25.24391 55.37864 44 ft 5 kts 224°
2026-04-21 12:20 25.24338 55.37806 41 ft 14 kts 242°
2026-04-21 12:20 25.24375 55.37713 40 ft 15 kts 298°
2026-04-21 12:20 25.24432 55.37605 38 ft 18 kts 303°
2026-04-21 12:21 25.24503 55.37486 36 ft 19 kts 298°
2026-04-21 12:21 25.24573 55.37353 34 ft 20 kts 294°
2026-04-21 12:21 25.24543 55.37269 34 ft 13 kts 193°
2026-04-21 12:21 25.24456 55.37233 34 ft 12 kts 212°
2026-04-21 12:22 25.24424 55.37212 34 ft 0 kts 210°